2022/12/25 00:00:00,61.7, 0.2
2022/12/25 00:10:00,60.9, 0.1
2022/12/25 00:20:00,59.8, 0.1
2022/12/25 00:30:00,59.3, 0.0
2022/12/25 00:40:00,59.6, 0.4
2022/12/25 00:50:00,59.9,-0.1
2022/12/25 01:00:00,59.8, 0.4
2022/12/25 01:10:00,59.7, 0.5
2022/12/25 01:20:00,59.5, 0.4
2022/12/25 01:30:00,60.1, 0.2
2022/12/25 01:40:00,60.4, 0.3
2022/12/25 01:50:00,60.4, 0.4
2022/12/25 02:00:00,60.2, 0.1
2022/12/25 02:10:00,60.2, 0.2
2022/12/25 02:20:00,60.1, 0.4
2022/12/25 02:30:00,60.3, 0.0
2022/12/25 02:40:00,59.9, 0.1
2022/12/25 02:50:00,59.7,-0.2
2022/12/25 03:00:00,59.8, 0.0
2022/12/25 03:10:00,59.5, 0.2
2022/12/25 03:20:00,59.6, 0.2
2022/12/25 03:30:00,60.1, 0.1
2022/12/25 03:40:00,60.1, 0.0
2022/12/25 03:50:00,60.0, 0.4
2022/12/25 04:00:00,60.1, 0.2
2022/12/25 04:10:00,60.2,-0.3
2022/12/25 04:20:00,60.1, 0.1
2022/12/25 04:30:00,60.0, 0.3
2022/12/25 04:40:00,60.0, 0.1
2022/12/25 04:50:00,59.8, 0.1
2022/12/25 05:00:00,59.5,-0.2
2022/12/25 05:10:00,59.2, 0.6
2022/12/25 05:20:00,59.2, 0.1
2022/12/25 05:30:00,59.2,-0.1
2022/12/25 05:40:00,59.2, 0.3
2022/12/25 05:50:00,59.1, 0.1
2022/12/25 06:00:00,59.0, 0.4
2022/12/25 06:10:00,59.2, 0.1
2022/12/25 06:20:00,59.0, 0.1
2022/12/25 06:30:00,58.8, 0.4
2022/12/25 06:40:00,58.7, 0.0
2022/12/25 06:50:00,58.6, 0.4
2022/12/25 07:00:00,58.5, 0.2
2022/12/25 07:10:00,58.4, 0.0
2022/12/25 07:20:00,58.4, 0.3
2022/12/25 07:30:00,58.3, 0.3
2022/12/25 07:40:00,58.3, 0.4
2022/12/25 07:50:00,58.2, 0.4
2022/12/25 08:00:00,58.1, 0.5
2022/12/25 08:10:00,58.1, 0.4
2022/12/25 08:20:00,58.3, 0.8
2022/12/25 08:30:00,58.2, 1.1
2022/12/25 08:40:00,57.7, 1.2
2022/12/25 08:50:00,57.6, 1.2
2022/12/25 09:00:00,57.6, 1.7
2022/12/25 09:10:00,57.7, 1.7
2022/12/25 09:20:00,57.6, 1.9
2022/12/25 09:30:00,57.5, 1.9
2022/12/25 09:40:00,57.3, 1.8
2022/12/25 09:50:00,57.2, 1.9
2022/12/25 10:00:00,57.2, 2.0
2022/12/25 10:10:00,57.0, 2.1
2022/12/25 10:20:00,56.7, 2.2
2022/12/25 10:30:00,56.6, 2.4
2022/12/25 10:40:00,56.7, 3.3
2022/12/25 10:50:00,56.6, 3.1
2022/12/25 11:00:00,56.5, 3.6
2022/12/25 11:10:00,56.4, 3.1
2022/12/25 11:20:00,56.3,11.5
2022/12/25 11:30:00,56.0,12.1
2022/12/25 11:40:00,55.6,12.4
2022/12/25 11:50:00,55.6,12.6
2022/12/25 12:00:00,55.5,11.7
2022/12/25 12:10:00,55.4, 7.6
2022/12/25 12:20:00,55.4, 5.4
2022/12/25 12:30:00,55.2, 4.6
2022/12/25 12:40:00,54.9, 6.6
2022/12/25 12:50:00,54.7, 7.4
2022/12/25 13:00:00,54.6, 4.2
2022/12/25 13:10:00,54.5, 3.3
2022/12/25 13:20:00,54.5, 3.3
2022/12/25 13:30:00,54.3, 3.0
2022/12/25 13:40:00,54.2, 3.2
2022/12/25 13:50:00,54.0, 3.2
2022/12/25 14:00:00,53.9, 3.4
2022/12/25 14:10:00,53.8, 2.6
2022/12/25 14:20:00,53.7, 2.3
2022/12/25 14:30:00,53.5, 2.5
2022/12/25 14:40:00,53.2, 1.4
2022/12/25 14:50:00,52.9, 1.5
2022/12/25 15:00:00,52.7, 1.8
2022/12/25 15:10:00,52.5, 1.1
2022/12/25 15:20:00,52.2, 1.5
2022/12/25 15:30:00,52.1, 1.0
2022/12/25 15:40:00,51.9, 1.5
2022/12/25 15:50:00,52.0, 1.2
2022/12/25 16:00:00,51.8, 1.1
2022/12/25 16:10:00,51.3, 0.6
2022/12/25 16:20:00,51.4, 0.9
2022/12/25 16:30:00,51.3, 0.9
2022/12/25 16:40:00,50.9, 1.2
2022/12/25 16:50:00,51.0, 0.7
2022/12/25 17:00:00,50.8, 1.3
2022/12/25 17:10:00,50.5, 1.0
2022/12/25 17:20:00,50.3, 0.7
2022/12/25 17:30:00,49.9, 1.0
2022/12/25 17:40:00,49.8, 0.8
2022/12/25 17:50:00,49.6, 1.3
2022/12/25 18:00:00,49.4, 1.4
2022/12/25 18:10:00,49.4, 1.5
2022/12/25 18:20:00,49.4, 1.3
2022/12/25 18:30:00,49.4, 0.8
2022/12/25 18:40:00,49.2, 0.7
2022/12/25 18:50:00,48.9, 0.8
2022/12/25 19:00:00,48.7, 0.7
2022/12/25 19:10:00,48.8, 0.5
2022/12/25 19:20:00,48.5, 0.7
2022/12/25 19:30:00,48.4, 0.6
2022/12/25 19:40:00,48.6, 0.7
2022/12/25 19:50:00,48.8, 0.4
2022/12/25 20:00:00,48.7, 0.2
2022/12/25 20:10:00,48.1, 0.4
2022/12/25 20:20:00,47.8, 0.5
2022/12/25 20:30:00,47.9, 0.4
2022/12/25 20:40:00,47.9, 0.6
2022/12/25 20:50:00,47.9, 0.2
2022/12/25 21:00:00,47.9, 0.4
2022/12/25 21:10:00,47.9, 0.3
2022/12/25 21:20:00,47.8, 0.1
2022/12/25 21:30:00,47.7, 0.4
2022/12/25 21:40:00,47.8, 0.4
2022/12/25 21:50:00,47.7, 0.2
2022/12/25 22:00:00,47.7, 0.1
2022/12/25 22:10:00,47.6, 0.4
2022/12/25 22:20:00,47.5, 0.0
2022/12/25 22:30:00,47.9, 0.3
2022/12/25 22:40:00,47.9, 0.3
2022/12/25 22:50:00,47.9, 0.0
2022/12/25 23:00:00,47.8, 0.1
2022/12/25 23:10:00,47.8, 0.0
2022/12/25 23:20:00,48.1, 0.1
2022/12/25 23:30:00,47.9,-0.2
2022/12/25 23:40:00,47.4,-0.3
2022/12/25 23:50:00,47.4, 0.0
